Погода Сасово

Погода Сасово : погода сейчас, прогноз погоды и архив. Всё, что Вы хотите узнать о погоде Сасово!

Хотите узнать прогноз погоды Сасово? Тогда Вам сюда: Погода Сасово

Поиск расширенной информации на нашем сайте:

Полезная информация: Изготовление и производство картонной упаковки ppk-m.ru/product/5.

Другие новости

Новости СМИ2

Главная страница сайта

Новости сайта

03.07.2017

Напоминаем, что на нашем специализированном сайте Метеоцентр.Азия вы можете получить высокодетализированные автоматические прогнозы погоды по пунктам России, СНГ и мира в авиационном формате (включающие направление и скорость ветра, видимость, явления погоды, количество и форму облачности, нижнюю и верхнюю границу облачности).

Рекомендуем: Научно технические и инжиниринговые услуги.

Погода Сасово - сегодня

Время (UTC), дата Ветер
(°,м/с) 
Видим.   Явления Облачность Т
(°С)
Тd
(°С)
f(%) Тe
(°С)
Pmin
(гПа)
dP
(гПа)
Po
(мм)
O2
(г/м3)
Тmin Tmax R s Состояние
почвы
03 07.02.18 150 (ЮВ) 3000 м  слаб. ливневой снег  10/10 240 м кучево-дожд. 
[Cb cap]
-7.9 -9 92 -12  1033.2  0.6  764  318  -12.4    0.8  равномерный
сухой снег
100% 
06 07.02.18 160 (Ю) 3500 м  слаб. ливневой снег  10/10 570 м кучево-дожд. 
[Cb cap]
-6.5 -7.3 94 -10  1035.1  1.9  765  317           
09 07.02.18 170 (Ю) 2500 м  слаб. ливневой снег  10/10 270 м кучево-дожд. 
[Cb cap]
-4.6 -5.8 91 -8  1036.1  1.1  766  315           
12 07.02.18 170 (Ю) 7000 м  слаб. ливневой снег  10/10 330 м кучево-дожд. 
[Cb cap]
-4 -6 86 -5  1036.2  0.1  766  314           
15 07.02.18 тихо ()   6000 м  слаб. ливневой снег  10/10 360 м кучево-дожд. 
[Cb cap]
-5.4 -6 96 -5  1036.8  0.5  766  316    -3.8     
18 07.02.18 020 (С) 6000 м  слаб. ливневой снег  10/10 400 м кучево-дожд. 
[Cb cap]
-5.6 -5.8 99 -5  1036.7  0.5  766  316           
21 07.02.18 тихо ()   7000 м  слаб. ливневой снег  10/10 420 м кучево-дожд. 
[Cb cap]
-5.3 -5.5 98 -5  1036.3  -0.4  766  315           
00 08.02.18 тихо ()   6000 м  слаб. ливневой снег  10/10 450 м кучево-дожд. 
[Cb cap]
-4.7 -5 98 -5  1036.4  0.2  766  315           
03 08.02.18 160 (Ю) 5000 м  слаб. ливневой снег  10/10 210 м кучево-дожд. 
[Cb cap]
-3.9 -3.9 100 -3  1036.2  -0.2  766  314  -5.7    0.3  равномерный
сухой снег
100% 
06 08.02.18 140 (ЮВ) 5000 м  слаб. ливневой снег  10/10 210 м кучево-дожд. 
[Cb cap]
-3.9 -4.6 95 -6  1036.4  0.2  766  314           
09 08.02.18 140 (ЮВ) 20000 м  {ливн. осадки, снег}  10/10 300 м 
[Sc]
-3 -5.1 85 -4  1035.8  -0.5  766  313           
12 08.02.18 210 (ЮЗ) 20000 м  {ливн. осадки, снег}  9/4 600 м верхняя 
[Sc|Ci fib]
-3.1 -6 80 -3  1035.1  -0.7  765  313           
15 08.02.18 110 (В) 10 км    10/10 600 м 
[Sc]
-4 -6.5 83 -8  1034.7  -0.4  765  313    -1.3  0.0     
18 08.02.18 110 (В) 10 км    10/5 360 м верхняя 
[Sc|Ci fib]
-7.1 -9.2 85 -10  1034.2  -0.7  764  317           
21 08.02.18 120 (ЮВ) 10 км    10/6 330 м верхняя 
[St|Ci fib]
-8.1 -9.9 87 -12  1033.1  -1.1  763  318           
00 09.02.18 120 (ЮВ) 10 км    10/10 270 м 
[St]
-8 -9.7 88 -12  1032.5  -0.6  763  318           
03 09.02.18 120 (ЮВ) 10 км    10/10 300 м 
[St]
-7.1 -8.8 88 -11  1031.1  -1.3  762  316  -8.3      равномерный
сухой снег
100% 
06 09.02.18 110 (В) 20000 м    10/10 300 м 
[St]
-8.7 -10.8 85 -12  1031.2  762  318  -9.2         
09 09.02.18 090 (В) 20000 м    10/3 600 м верхняя 
[Sc|Ci fib]
-5.5 -9.9 71 -8  1030.1  -0.9  761  314           
12 09.02.18 110 (В) 20000 м    10/0 средняя, верхняя 
[Ac trans|Ci sp]
-3.5 -9.6 63 -6  1029.3  -0.7  761  312           
15 09.02.18 110 (В) 10 км    10/0 средняя, верхняя 
[Ac trans|Ci fib]
-5.9 -10.4 70 -9  1029.2  -0.2  761  314    -3.5       
18 09.02.18 120 (ЮВ) 10 км    10/0 средняя, верхняя 
[Ac trans|Ci fib]
-5.6 -10.9 66 -8  1028.9  -0.3  760  314           
09 22.02.18 310 (СЗ) 20000 м    3/3 600 м 
[Cu hum]
-11.2 -15.4 71 -13  1026.3  0.1  758  320           
12 26.03.18 210 (ЮЗ) 20000 м    10/0 средняя 
[Ac und]
+4.4 -4.6 52 +3  1010.1  -0.9  747  297           
03 07.04.18 220 (ЮЗ) 4500 м  слаб. ливневой дождь  10/10 270 м кучево-дожд. 
[Cb cap]
+4.7 +4.5 99 +6  1014.1  750  296  +4.1    мокрый или
старый снег
10-40% 
Время (UTC), дата Ветер
(°,м/с) 
Видим.   Явления Облачность Т
(°С)
Тd
(°С)
f(%) Тe
(°С)
Pmin
(гПа)
dP
(гПа)
Po
(мм)
O2
(г/м3)
Тmin Tmax R s Состояние
почвы

Для получения пояснительной информации подведите курсор к названию столбца.

ПОГОДА Сасово - архив

Всё, что Вы хотите узнать о погоде Сасово - удобно и подробно!

Выберите нужную дату (начиная с 1 января 2015* года) и нажмите кнопку "Найти".
Будут отображены архивные сводки погоды по пункту Сасово, начиная с указанной даты.


Отображать данные в формате CSV (для использования в таблицах Excel)


Внимание! Наш архив погоды предназначен исключительно для личного некоммерческого использования в познавательных целях. Если Вам необходимы официальные справки о состоянии погоды (для производственных, юридических, коммерческих и т.п. целей), обращайтесь в органы Росгидромета.

*Примечание: данная дата относится к архиву по метеостанциям СССР (Россия, СНГ, Балтия).
Архив по метеостанциям Зарубежной Европы и Азии (кроме Китая) хранится 10 дней, по другим регионам земного шара (Китай, Африка, Америка, Австралия, Океания) - 1 день.

Сасово - район местоположения метеостанции


Название, широта, долгота, высота метеостанции:
Сасово 54.3°ш. 41.1°д. 115 м над ур. моря [Российская Федерация]

Дополнительная информация

В oтличие oт бoльшинства пoгoдных сайтoв мы публикуем пoдрoбную метеoинфoрмацию в детальнoм прoфессиoнальнoм фoрмате.

Характеристики температуры и влажнoсти вoздуха измеряются на высoте 2 м в тени вдали oт зданий и деревьев.
Скoрoсть ветра измеряется на высoте 10 м (на урoвне рoста челoвека скoрoсть ветра ниже в 1.5-2 раза). Если метеoстанция нахoдится в гoрoде или в лесу, тo скoрoсть ветра занижена на 2-4 м/с пo сравнению с oткрытым местoм. Скoрoсть ветра над акватoриями крупных рек и oзёр, а также на вершинах хoлмoв на 2-5 м/с выше, чем в oбычных услoвиях.
Атмoсфернoе давление в разных тoчках местнoсти мoжет значительнo oтличаться oт давления на метеoстанции, в зависимoсти oт услoвий рельефа (при пoдъёме на 10 м давление пoнижается примернo на 1 мм рт.ст.).